Weather History for Oelwein, IA

Change the Weather History Date:

Tuesday, March 18, 2014

  Actual Average Record
Temperature  
Mean Temperature 36 °F -  
Max Temperature 42 °F 43 °F 78 °F (2012)
Min Temperature 30 °F 26 °F 0 °F (1960)
Degree Days  
Heating Degree Days 29    
Moisture  
Dew Point 33 °F    
Average Humidity 89    
Maximum Humidity 100    
Minimum Humidity 75    
Precipitation  
Precipitation 0.11 in - - ()
Sea Level Pressure  
Sea Level Pressure 29.64 in    
Wind  
Wind Speed 14 mph (ESE)    
Max Wind Speed 21 mph    
Max Gust Speed 28 mph    
Visibility 9 miles    
Events Rain    
Averages and records for this station are not official NWS values.
T = Trace of Precipitation, MM = Missing Value Source: NWS Daily Summary

Daily Weather History Graph

Daily Weather History Graph

Search for Another Location

Airport:

Trip Planner

Search our weather history database for the weather conditions in past years. The results will help you decide how hot, cold, wet, or windy it might be!

Date:

Astronomy

Mar. 18, 2014 Rise Set
Actual Time 7:14 AM CDT 7:17 PM CDT
Civil Twilight 6:46 AM CDT 7:46 PM CDT
Nautical Twilight 6:13 AM CDT 8:19 PM CDT
Astronomical Twilight 5:40 AM CDT 8:52 PM CDT
Moon 9:39 PM CDT (3/18) 8:01 AM CDT (3/18)
Length of Visible Light 12h 59m
Length of Day
12h 03m
Waning Gibbous, 96% of the Moon is Illuminated
Mar 18
Waning Gibbous
Mar 23
Last Quarter
Mar 30
New
Apr 7
First Quarter
Apr 15
Full

Hourly Weather History & Observations

Time (CDT) Temp. Windchill Dew Point Humidity Pressure Visibility Wind Dir Wind Speed Gust Speed Precip Events Conditions
12:15 AM 32.0 °F 21.2 °F 26.6 °F 80% 29.66 in 10.0 mi SE 16.1 mph - N/A   Mostly Cloudy
12:35 AM 32.0 °F 22.1 °F 26.6 °F 80% 29.66 in 10.0 mi SSE 13.8 mph - N/A   Scattered Clouds
12:55 AM 32.0 °F 22.1 °F 26.6 °F 80% 29.66 in 10.0 mi SE 13.8 mph - N/A   Mostly Cloudy
1:15 AM 32.0 °F 23.0 °F 26.6 °F 80% 29.67 in 10.0 mi SE 11.5 mph - N/A   Scattered Clouds
1:35 AM 30.2 °F 19.8 °F 26.6 °F 86% 29.66 in 10.0 mi SE 13.8 mph - N/A   Clear
1:55 AM 32.0 °F 21.2 °F 26.6 °F 80% 29.66 in 10.0 mi SE 16.1 mph - N/A   Clear
2:15 AM 30.2 °F 18.9 °F 26.6 °F 86% 29.66 in 10.0 mi SE 16.1 mph - N/A   Clear
2:35 AM 30.2 °F 20.2 °F 26.6 °F 86% 29.66 in 10.0 mi SE 12.7 mph - N/A   Clear
2:55 AM 30.2 °F 20.8 °F 26.6 °F 86% 29.66 in 10.0 mi SE 11.5 mph - N/A   Clear
3:15 AM 30.2 °F 20.2 °F 24.8 °F 80% 29.65 in 10.0 mi SE 12.7 mph - N/A   Clear
3:35 AM 30.2 °F 20.8 °F 24.8 °F 80% 29.65 in 10.0 mi SE 11.5 mph - N/A   Clear
3:55 AM 30.2 °F 19.8 °F 24.8 °F 80% 29.65 in 10.0 mi SE 13.8 mph - N/A   Clear
4:15 AM 30.2 °F 20.2 °F 24.8 °F 80% 29.65 in 10.0 mi SE 12.7 mph - N/A   Clear
4:35 AM 30.2 °F 20.2 °F 24.8 °F 80% 29.64 in 10.0 mi SE 12.7 mph - N/A   Clear
4:55 AM 32.0 °F 22.5 °F 24.8 °F 75% 29.64 in 10.0 mi SE 12.7 mph - N/A   Clear
5:15 AM 30.2 °F 20.2 °F 24.8 °F 80% 29.64 in 10.0 mi SE 12.7 mph - N/A   Partly Cloudy
5:35 AM 30.2 °F 21.3 °F 26.6 °F 86% 29.65 in 10.0 mi SE 10.4 mph - N/A   Partly Cloudy
5:55 AM 30.2 °F 21.3 °F 26.6 °F 86% 29.64 in 10.0 mi SE 10.4 mph - N/A   Clear
6:15 AM 30.2 °F 20.2 °F 26.6 °F 86% 29.64 in 10.0 mi SE 12.7 mph - N/A   Clear
6:35 AM 30.2 °F 19.8 °F 26.6 °F 86% 29.64 in 10.0 mi SE 13.8 mph - N/A   Partly Cloudy
6:55 AM 30.2 °F 19.3 °F 26.6 °F 86% 29.64 in 10.0 mi SE 15.0 mph - N/A   Mostly Cloudy
7:15 AM 30.2 °F 20.2 °F 26.6 °F 86% 29.65 in 10.0 mi SSE 12.7 mph - N/A   Mostly Cloudy
7:35 AM 30.2 °F 20.2 °F 26.6 °F 86% 29.66 in 10.0 mi SSE 12.7 mph - N/A   Partly Cloudy
7:55 AM 32.0 °F 23.0 °F 26.6 °F 80% 29.68 in 10.0 mi SSE 11.5 mph - N/A   Partly Cloudy
8:15 AM 32.0 °F 24.8 °F 28.4 °F 87% 29.69 in 10.0 mi SE 8.1 mph - N/A   Clear
8:35 AM 32.0 °F 24.2 °F 28.4 °F 87% 29.69 in 10.0 mi SE 9.2 mph - N/A   Clear
8:55 AM 32.0 °F 23.0 °F 28.4 °F 87% 29.69 in 10.0 mi SE 11.5 mph - N/A   Clear
9:15 AM 32.0 °F 23.6 °F 30.2 °F 93% 29.69 in 10.0 mi SE 10.4 mph - N/A   Clear
9:35 AM 33.8 °F 24.8 °F 30.2 °F 87% 29.68 in 10.0 mi ESE 12.7 mph - N/A   Clear
9:55 AM 33.8 °F 24.3 °F 32.0 °F 93% 29.68 in 10.0 mi SE 13.8 mph - N/A   Clear
10:15 AM 33.8 °F 23.9 °F 32.0 °F 93% 29.68 in 10.0 mi SE 15.0 mph - N/A   Clear
10:35 AM 35.6 °F 25.2 °F 32.0 °F 87% 29.67 in 10.0 mi SE 18.4 mph - N/A   Clear
10:55 AM 35.6 °F 25.9 °F 33.8 °F 93% 29.68 in 10.0 mi SE 16.1 mph - N/A   Clear
11:15 AM 35.6 °F 25.2 °F 33.8 °F 93% 29.68 in 10.0 mi SE 18.4 mph 24.2 mph N/A   Clear
11:35 AM 37.4 °F 27.5 °F 33.8 °F 87% 29.67 in 10.0 mi SE 18.4 mph - N/A   Clear
11:55 AM 37.4 °F 27.2 °F 35.6 °F 93% 29.67 in 10.0 mi SE 19.6 mph - N/A   Clear
12:15 PM 39.2 °F 30.2 °F 37.4 °F 93% 29.67 in 10.0 mi SE 17.3 mph - N/A   Clear
12:35 PM 39.2 °F 29.3 °F 37.4 °F 93% 29.66 in 10.0 mi ESE 20.7 mph - N/A   Clear
12:55 PM 39.2 °F 30.2 °F 37.4 °F 93% 29.65 in 10.0 mi ESE 17.3 mph 26.5 mph N/A   Clear
1:15 PM 41.0 °F 32.5 °F 37.4 °F 87% 29.65 in 10.0 mi ESE 17.3 mph 25.3 mph N/A   Clear
1:35 PM 41.0 °F 33.9 °F 37.4 °F 87% 29.66 in 10.0 mi ESE 12.7 mph 19.6 mph N/A   Partly Cloudy
1:55 PM 41.0 °F 33.9 °F 37.4 °F 87% 29.64 in 10.0 mi ESE 12.7 mph 19.6 mph N/A   Partly Cloudy
2:15 PM 41.0 °F 32.8 °F 37.4 °F 87% 29.63 in 10.0 mi East 16.1 mph - N/A   Partly Cloudy
2:35 PM 41.0 °F 32.8 °F 37.4 °F 87% 29.61 in 10.0 mi East 16.1 mph - N/A   Partly Cloudy
2:55 PM 41.0 °F 34.3 °F 37.4 °F 87% 29.60 in 10.0 mi East 11.5 mph 18.4 mph N/A   Clear
3:15 PM 42.8 °F 35.1 °F 39.2 °F 87% 29.56 in 10.0 mi East 16.1 mph - N/A   Clear
3:35 PM 42.8 °F 34.5 °F 37.4 °F 81% 29.56 in 10.0 mi East 18.4 mph 27.6 mph N/A   Clear
3:55 PM 42.8 °F 35.1 °F 37.4 °F 81% 29.59 in 10.0 mi ESE 16.1 mph 23.0 mph N/A   Clear
4:15 PM 41.0 °F 32.8 °F 37.4 °F 87% 29.58 in 10.0 mi East 16.1 mph - N/A   Clear
4:35 PM 41.0 °F 33.1 °F 37.4 °F 87% 29.59 in 10.0 mi ESE 15.0 mph 23.0 mph N/A   Clear
4:55 PM 41.0 °F 33.1 °F 37.4 °F 87% 29.60 in 10.0 mi ESE 15.0 mph - N/A   Clear
5:15 PM 41.0 °F 32.5 °F 37.4 °F 87% 29.61 in 9.0 mi ESE 17.3 mph - N/A   Clear
5:35 PM 41.0 °F 33.9 °F 37.4 °F 87% 29.62 in 9.0 mi ESE 12.7 mph 19.6 mph N/A   Clear
5:55 PM 41.0 °F 34.3 °F 37.4 °F 87% 29.62 in 9.0 mi East 11.5 mph 19.6 mph N/A   Clear
6:15 PM 41.0 °F 33.9 °F 37.4 °F 87% 29.62 in 9.0 mi East 12.7 mph - N/A   Clear
6:35 PM 39.2 °F 32.0 °F 37.4 °F 93% 29.62 in 9.0 mi East 11.5 mph - N/A   Scattered Clouds
6:55 PM 39.2 °F 33.0 °F 37.4 °F 93% 29.62 in 9.0 mi East 9.2 mph - N/A   Overcast
7:15 PM 39.2 °F 31.6 °F 37.4 °F 93% 29.62 in 9.0 mi ENE 12.7 mph - N/A   Overcast
7:35 PM 39.2 °F 32.5 °F 37.4 °F 93% 29.63 in 9.0 mi ENE 10.4 mph - N/A   Overcast
7:55 PM 37.4 °F 30.3 °F 37.4 °F 100% 29.63 in 6.0 mi ENE 10.4 mph - N/A   Overcast
8:15 PM 37.4 °F 29.8 °F 37.4 °F 100% 29.63 in 5.0 mi ENE 11.5 mph - N/A Rain Light Rain
8:35 PM 37.4 °F 29.8 °F 37.4 °F 100% 29.63 in 5.0 mi ENE 11.5 mph - N/A Rain Light Rain
8:55 PM 37.4 °F 29.3 °F 37.4 °F 100% 29.63 in 5.0 mi ENE 12.7 mph - 0.03 in Rain Light Rain
9:15 PM 37.4 °F 30.3 °F 37.4 °F 100% 29.63 in 5.0 mi ENE 10.4 mph - N/A Rain Light Rain
9:35 PM 37.4 °F 29.8 °F 37.4 °F 100% 29.63 in 4.0 mi ENE 11.5 mph - N/A   Overcast
9:55 PM 37.4 °F 30.8 °F 37.4 °F 100% 29.63 in 4.0 mi ENE 9.2 mph 17.3 mph 0.01 in Rain Light Rain
10:15 PM 37.4 °F 29.8 °F 37.4 °F 100% 29.63 in 2.5 mi ENE 11.5 mph - N/A Rain Light Rain
10:35 PM 37.4 °F 29.8 °F 37.4 °F 100% 29.63 in 2.0 mi ENE 11.5 mph - N/A Rain Light Rain
10:55 PM 37.4 °F 30.3 °F 37.4 °F 100% 29.63 in 2.0 mi ENE 10.4 mph - 0.03 in Rain Light Rain
11:15 PM 37.4 °F 31.4 °F 37.4 °F 100% 29.62 in 2.0 mi ENE 8.1 mph - N/A Rain Light Rain
11:35 PM 37.4 °F 30.8 °F 37.4 °F 100% 29.62 in 2.0 mi NE 9.2 mph - N/A   Overcast
11:55 PM 37.4 °F 31.4 °F 37.4 °F 100% 29.62 in 1.8 mi NE 8.1 mph - 0.04 in   Overcast